User: anonymous   Login
Location: Observatoire
(46.1952°N, 5.3391°E)
Time: 15:12:04
(UTC+02:00)
Language:

QB50P2 - Orbit

View from above orbital plane
View from above orbital plane
View from above satellite
View from above satellite

Ground track
Ground track

The orbit data is extracted from the following two-line orbital elements,

1 40032U 14033Y   24103.58665423  .00006750  00000-0  58858-3 0  9994
2 40032  98.0016  54.3896 0010511  23.0080 337.1610 14.97162571532858
Epoch (UTC): 12 April 2024 14:04:46
Eccentricity: 0.0010511
inclination: 98.0016°
perigee height: 568 km
apogee height: 583 km
right ascension of ascending node: 54.3896°
argument of perigee: 23.0080°
revolutions per day: 14.97162571
mean anomaly at epoch: 337.1610°
orbit number at epoch: 53285

The dashed part of the orbit path shows where the satellite is in the earth's shadow,  

DLR